Location: Chandrammap?lem
(16.9200°N, 81.0051°E)
Time: 10:07:39
(UTC+00:00)

GPS 2-12 Rocket1 - Pass Details

Date: 29 May 2024
Orbit: 574 x 634 km, 20.0° (Epoch: 14 June)

Event Time Altitude Azimuth Distance (km) Brightness Sun altitude
Exits shadow 22:17:52 66° 178° (S) 655 2.9 -22.8°
Maximum altitude 22:18:00 67° 165° (SSE) 652 3.0 -22.8°
Drops below altitude 10° 22:22:27 10° 83° (E) 1,918 6.5 -21.9°
Sets 22:24:46 0° 81° (E) 2,809 7.6 -21.4°
